Weather History for KYKN - November, 2012

Change the Weather History Date:

Friday, November 9, 2012

  Actual Average Record
Temperature  
Mean Temperature 42 °F -  
Max Temperature 53 °F 47 °F 75 °F (1999)
Min Temperature 32 °F 27 °F -2 °F (1991)
Degree Days  
Heating Degree Days 22    
Moisture  
Dew Point 38 °F    
Average Humidity 83    
Maximum Humidity 100    
Minimum Humidity 58    
Precipitation  
Precipitation 0.00 in - - ()
Sea Level Pressure  
Sea Level Pressure 29.82 in    
Wind  
Wind Speed 8 mph (NE)    
Max Wind Speed 15 mph    
Max Gust Speed 21 mph    
Visibility 7 miles    
Events      
Averages and records for this station are not official NWS values.
T = Trace of Precipitation, MM = Missing Value Source: NWS Daily Summary

Daily Weather History Graph

Daily Weather History Graph

Search for Another Location

Airport or City:

Trip Planner

Search our weather history database for the weather conditions in past years. The results will help you decide how hot, cold, wet, or windy it might be!

Date:

Astronomy

Nov. 09, 2012 Rise Set
Actual Time 7:14 AM CST 5:11 PM CST
Civil Twilight 6:44 AM CST 5:41 PM CST
Nautical Twilight 6:10 AM CST 6:15 PM CST
Astronomical Twilight 5:37 AM CST 6:48 PM CST
Moon 2:08 AM CST (11/9) 2:31 PM CST (11/9)
Length of Visible Light 10h 57m
Length of Day
9h 56m
Waning Crescent, 23% of the Moon is Illuminated
Nov 9
Waning Crescent
Nov 13
New
Nov 20
First Quarter
Nov 28
Full
Dec 6
Last Quarter

Hourly Weather History & Observations

Time (CST) Temp. Windchill Dew Point Humidity Pressure Visibility Wind Dir Wind Speed Gust Speed Precip Events Conditions
12:15 AM 37.4 °F 31.4 °F 35.6 °F 93% 29.95 in 7.0 mi NE 8.1 mph - N/A   Overcast
12:35 AM 37.4 °F 31.4 °F 35.6 °F 93% 29.94 in 7.0 mi NE 8.1 mph - N/A   Overcast
12:55 AM 37.4 °F 31.4 °F 35.6 °F 93% 29.93 in 7.0 mi NE 8.1 mph - N/A   Overcast
1:15 AM 37.4 °F 32.8 °F 35.6 °F 93% 29.93 in 6.0 mi North 5.8 mph - N/A   Overcast
1:35 AM 37.4 °F 32.1 °F 35.6 °F 93% 29.92 in 7.0 mi NNE 6.9 mph - N/A   Overcast
1:55 AM 37.4 °F 32.1 °F 33.8 °F 87% 29.92 in 7.0 mi NNE 6.9 mph - N/A   Mostly Cloudy
2:15 AM 35.6 °F 30.7 °F 33.8 °F 93% 29.93 in 6.0 mi North 5.8 mph - N/A   Clear
2:35 AM 33.8 °F 27.7 °F 32.0 °F 93% 29.92 in 4.0 mi North 6.9 mph - N/A   Partly Cloudy
2:55 AM 33.8 °F 28.6 °F 32.0 °F 93% 29.92 in 5.0 mi NNW 5.8 mph - N/A   Clear
3:15 AM 33.8 °F 28.6 °F 30.2 °F 87% 29.93 in 4.0 mi NW 5.8 mph - N/A   Clear
3:35 AM 32.0 °F 26.4 °F 30.2 °F 93% 29.93 in 3.0 mi NW 5.8 mph - N/A   Clear
3:55 AM 33.8 °F 27.0 °F 32.0 °F 93% 29.93 in 4.0 mi NW 8.1 mph - N/A   Clear
4:15 AM 32.0 °F 25.6 °F 30.2 °F 93% 29.93 in 4.0 mi NW 6.9 mph - N/A   Clear
4:35 AM 32.0 °F 24.2 °F 30.2 °F 93% 29.92 in 4.0 mi NNW 9.2 mph - N/A   Clear
4:55 AM 32.0 °F 25.6 °F 30.2 °F 93% 29.92 in 4.0 mi NNW 6.9 mph - N/A   Clear
5:15 AM 33.8 °F 27.7 °F 32.0 °F 93% 29.93 in 4.0 mi NNW 6.9 mph - N/A   Mostly Cloudy
5:35 AM 35.6 °F 30.7 °F 33.8 °F 93% 29.93 in 5.0 mi North 5.8 mph - N/A   Overcast
5:55 AM 35.6 °F 29.9 °F 35.6 °F 100% 29.93 in 5.0 mi North 6.9 mph - N/A   Overcast
6:15 AM 37.4 °F 31.4 °F 35.6 °F 93% 29.92 in 5.0 mi NNE 8.1 mph - N/A   Overcast
6:35 AM 37.4 °F 31.4 °F 35.6 °F 93% 29.93 in 5.0 mi NNE 8.1 mph - N/A   Overcast
6:55 AM 37.4 °F 30.3 °F 35.6 °F 93% 29.93 in 5.0 mi NNE 10.4 mph - N/A   Overcast
7:15 AM 37.4 °F 30.8 °F 35.6 °F 93% 29.92 in 4.0 mi NNE 9.2 mph - N/A   Overcast
7:35 AM 37.4 °F 30.3 °F 35.6 °F 93% 29.92 in 2.5 mi NNE 10.4 mph - N/A   Overcast
7:55 AM 37.4 °F 28.5 °F 35.6 °F 93% 29.92 in 2.0 mi NNE 15.0 mph - N/A   Overcast
8:15 AM 37.4 °F 29.8 °F 35.6 °F 93% 29.92 in 2.5 mi NNE 11.5 mph - N/A   Overcast
8:55 AM 37.4 °F 30.3 °F 35.6 °F 93% 29.91 in 2.5 mi NE 10.4 mph - N/A   Overcast
9:15 AM 37.4 °F 28.9 °F 35.6 °F 93% 29.90 in 2.0 mi ENE 13.8 mph 17.3 mph N/A   Overcast
9:35 AM 37.4 °F 29.3 °F 35.6 °F 93% 29.90 in 2.5 mi NE 12.7 mph - N/A   Overcast
9:55 AM 37.4 °F 29.3 °F 35.6 °F 93% 29.90 in 2.5 mi NE 12.7 mph - N/A   Overcast
10:15 AM 37.4 °F 29.8 °F 35.6 °F 93% 29.89 in 2.5 mi NE 11.5 mph - N/A   Overcast
10:35 AM 37.4 °F 30.8 °F 35.6 °F 93% 29.88 in 4.0 mi NE 9.2 mph - N/A   Overcast
10:55 AM 37.4 °F 30.3 °F 35.6 °F 93% 29.88 in 4.0 mi NE 10.4 mph - N/A   Overcast
11:15 AM 39.2 °F 32.5 °F 35.6 °F 87% 29.88 in 5.0 mi NE 10.4 mph - N/A   Overcast
11:35 AM 39.2 °F 33.6 °F 35.6 °F 87% 29.87 in 7.0 mi ENE 8.1 mph - N/A   Overcast
11:55 AM 41.0 °F 35.2 °F 37.4 °F 87% 29.85 in 8.0 mi ENE 9.2 mph - N/A   Overcast
12:15 PM 42.8 °F 38.0 °F 37.4 °F 81% 29.85 in 9.0 mi NE 8.1 mph - N/A   Overcast
12:35 PM 42.8 °F 39.3 °F 37.4 °F 81% 29.84 in 9.0 mi ENE 5.8 mph - N/A   Overcast
12:55 PM 42.8 °F 37.5 °F 37.4 °F 81% 29.81 in 10.0 mi ENE 9.2 mph - N/A   Overcast
1:15 PM 44.6 °F 41.4 °F 37.4 °F 76% 29.81 in 10.0 mi East 5.8 mph - N/A   Mostly Cloudy
1:35 PM 44.6 °F 41.4 °F 37.4 °F 76% 29.80 in 10.0 mi East 5.8 mph - N/A   Scattered Clouds
1:55 PM 46.4 °F 42.4 °F 39.2 °F 76% 29.79 in 10.0 mi NE 8.1 mph - N/A   Clear
2:15 PM 48.2 °F - 39.2 °F 71% 29.78 in 10.0 mi ENE 8.1 mph - N/A   Clear
2:35 PM 48.2 °F - 39.2 °F 71% 29.77 in 10.0 mi ENE 8.1 mph - N/A   Clear
2:55 PM 50.0 °F - 39.2 °F 66% 29.76 in 10.0 mi East 5.8 mph - N/A   Mostly Cloudy
3:15 PM 51.8 °F - 39.2 °F 62% 29.76 in 10.0 mi ENE 11.5 mph - N/A   Overcast
3:35 PM 51.8 °F - 39.2 °F 62% 29.76 in 10.0 mi ENE 9.2 mph - N/A   Mostly Cloudy
3:55 PM 51.8 °F - 39.2 °F 62% 29.75 in 10.0 mi ENE 10.4 mph - N/A   Mostly Cloudy
4:15 PM 53.6 °F - 39.2 °F 58% 29.74 in 10.0 mi ENE 8.1 mph - N/A   Overcast
4:35 PM 53.6 °F - 41.0 °F 62% 29.75 in 10.0 mi ENE 6.9 mph - N/A   Overcast
4:55 PM 53.6 °F - 41.0 °F 62% 29.74 in 10.0 mi NE 6.9 mph - N/A   Overcast
5:15 PM 53.6 °F - 41.0 °F 62% 29.73 in 10.0 mi NNE 5.8 mph - N/A   Overcast
5:35 PM 51.8 °F - 41.0 °F 67% 29.74 in 10.0 mi Calm Calm - N/A   Overcast
5:55 PM 51.8 °F - 41.0 °F 67% 29.75 in 10.0 mi NNW 3.5 mph - N/A   Overcast
6:15 PM 51.8 °F - 42.8 °F 71% 29.76 in 10.0 mi WNW 3.5 mph - N/A   Overcast
6:35 PM 51.8 °F - 41.0 °F 67% 29.74 in 10.0 mi NNW 3.5 mph - N/A   Overcast
6:55 PM 51.8 °F - 41.0 °F 67% 29.74 in 10.0 mi NE 3.5 mph - N/A   Mostly Cloudy
7:15 PM 51.8 °F - 42.8 °F 71% 29.73 in 10.0 mi ENE 6.9 mph - N/A   Mostly Cloudy
7:35 PM 50.0 °F - 42.8 °F 76% 29.73 in 10.0 mi East 4.6 mph - N/A   Mostly Cloudy
7:55 PM 50.0 °F - 41.0 °F 71% 29.72 in 10.0 mi East 5.8 mph - N/A   Partly Cloudy
8:15 PM 48.2 °F - 41.0 °F 76% 29.72 in 10.0 mi East 5.8 mph - N/A   Clear
8:35 PM 50.0 °F - 42.8 °F 76% 29.71 in 10.0 mi East 9.2 mph - N/A   Clear
8:55 PM 51.8 °F - 44.6 °F 76% 29.70 in 10.0 mi East 13.8 mph - N/A   Clear
9:15 PM 51.8 °F - 42.8 °F 71% 29.70 in 10.0 mi East 15.0 mph 20.7 mph N/A   Clear
9:35 PM 50.0 °F - 42.8 °F 76% 29.69 in 10.0 mi East 12.7 mph - N/A   Clear
9:55 PM 48.2 °F - 42.8 °F 82% 29.69 in 10.0 mi East 12.7 mph - N/A   Clear
10:15 PM 48.2 °F - 42.8 °F 82% 29.68 in 10.0 mi East 12.7 mph - N/A   Clear
10:35 PM 48.2 °F - 42.8 °F 82% 29.67 in 10.0 mi ENE 11.5 mph - N/A   Clear
10:55 PM 48.2 °F - 42.8 °F 82% 29.66 in 10.0 mi ENE 11.5 mph - N/A   Clear
11:15 PM 46.4 °F 41.1 °F 42.8 °F 87% 29.65 in 10.0 mi ENE 11.5 mph - N/A   Clear
11:35 PM 46.4 °F 41.5 °F 42.8 °F 87% 29.64 in 10.0 mi ENE 10.4 mph - N/A   Clear
11:55 PM 46.4 °F 41.1 °F 42.8 °F 87% 29.63 in 10.0 mi ENE 11.5 mph - N/A   Clear